H1 CPF 2 NER 2024 12 18 9 353 01 glonass144 H2 2207501 9144 52984 2024 12 18 0 0 0 2024 12 21 23 45 0 900 1 1 0 0 0 1 H9 10 0 60662 0.00000 0 9103714.006 -6444092.328 22971556.036 10 0 60662 900.00000 0 10312370.679 -3884363.317 23037051.628 10 0 60662 1800.00000 0 11694679.618 -1436355.090 22656690.968 10 0 60662 2700.00000 0 13211363.287 842777.940 21837845.313 10 0 60662 3600.00000 0 14814132.267 2904183.246 20596338.838 10 0 60662 4500.00000 0 16447615.442 4709095.017 18956148.464 10 0 60662 5400.00000 0 18051604.306 6230195.357 16948949.931 10 0 60662 6300.00000 0 19563519.363 7452496.634 14613517.806 10 0 60662 7200.00000 0 20920997.102 8373709.202 11994989.683 10 0 60662 8100.00000 0 22064490.661 9004079.707 9144007.327 10 0 60662 9000.00000 0 22939776.173 9365706.922 6115749.911 10 0 60662 9900.00000 0 23500260.059 9491363.632 2968876.811 10 0 60662 10800.00000 0 23708990.272 9422873.789 -235600.572 10 0 60662 11700.00000 0 23540286.214 9209112.850 -3435496.812 10 0 60662 12600.00000 0 22980917.585 8903715.358 -6568657.681 10 0 60662 13500.00000 0 22030780.937 8562586.473 -9574169.157 10 0 60662 14400.00000 0 20703043.596 8241322.831 -12393546.399 10 0 60662 15300.00000 0 19023746.928 7992652.372 -14971878.912 10 0 60662 16200.00000 0 17030883.732 7864002.309 -17258908.867 10 0 60662 17100.00000 0 14772986.745 7895299.362 -19210020.726 10 0 60662 18000.00000 0 12307286.108 8117096.721 -20787121.983 10 0 60662 18900.00000 0 9697511.935 8549108.558 -21959396.994 10 0 60662 19800.00000 0 7011433.281 9199215.662 -22703918.434 10 0 60662 20700.00000 0 4318236.157 10062985.821 -23006103.706 10 0 60662 21600.00000 0 1685850.084 11123730.652 -22860006.825 10 0 60662 22500.00000 0 -821665.031 12353097.695 -22268439.571 10 0 60662 23400.00000 0 -3146562.360 13712173.705 -21242919.162 10 0 60662 24300.00000 0 -5239579.833 15153053.171 -19803443.265 10 0 60662 25200.00000 0 -7061749.425 16620806.094 -17978096.620 10 0 60662 26100.00000 0 -8585768.796 18055761.875 -15802497.136 10 0 60662 27000.00000 0 -9796878.724 19396012.544 -13319092.596 10 0 60662 27900.00000 0 -10693210.879 20580029.060 -10576322.257 10 0 60662 28800.00000 0 -11285593.013 21549279.562 -7627660.593 10 0 60662 29700.00000 0 -11596821.907 22250738.348 -4530562.801 10 0 60662 30600.00000 0 -11660437.018 22639179.208 -1345333.798 10 0 60662 31500.00000 0 -11519049.003 22679156.023 1866056.032 10 0 60662 32400.00000 0 -11222296.030 22346587.173 5041184.133 10 0 60662 33300.00000 0 -10824516.335 21629877.346 8118393.607 10 0 60662 34200.00000 0 -10382237.048 20530530.222 11037991.189 10 0 60662 35100.00000 0 -9951586.587 19063227.126 13743401.902 10 0 60662 36000.00000 0 -9585740.468 17255369.335 16182258.196 10 0 60662 36900.00000 0 -9332508.345 15146104.056 18307403.087 10 0 60662 37800.00000 0 -9232163.511 12784875.465 20077788.985 10 0 60662 38700.00000 0 -9315605.387 10229561.497 21459256.224 10 0 60662 39600.00000 0 -9602931.234 7544273.807 22425177.795 10 0 60662 40500.00000 0 -10102476.026 4796911.642 22956959.474 10 0 60662 41400.00000 0 -10810359.933 2056569.945 23044387.164 10 0 60662 42300.00000 0 -11710561.869 -609092.442 22685815.913 10 0 60662 43200.00000 0 -12775516.026 -3136417.317 21888197.788 10 0 60662 44100.00000 0 -13967206.903 -5468140.265 20666948.339 10 0 60662 45000.00000 0 -15238717.960 -7555515.199 19045654.067 10 0 60662 45900.00000 0 -16536170.423 -9360084.075 17055625.847 10 0 60662 46800.00000 0 -17800972.629 -10855019.821 14735305.874 10 0 60662 47700.00000 0 -18972287.264 -12025987.750 12129538.257 10 0 60662 48600.00000 0 -19989614.498 -12871490.308 9288715.900 10 0 60662 49500.00000 0 -20795383.717 -13402681.043 6267818.680 10 0 60662 50400.00000 0 -21337445.619 -13642655.553 3125360.300 10 0 60662 51300.00000 0 -21571359.976 -13625248.883 -77736.862 10 0 60662 52200.00000 0 -21462382.272 -13393389.524 -3279317.775 10 0 60662 53100.00000 0 -20987064.527 -12997078.930 -6417199.155 10 0 60662 54000.00000 0 -20134401.307 -12491081.519 -9430378.809 10 0 60662 54900.00000 0 -18906470.775 -11932422.642 -12260226.118 10 0 60662 55800.00000 0 -17318541.671 -11377800.519 -14851629.844 10 0 60662 56700.00000 0 -15398639.554 -10881022.099 -17154080.203 10 0 60662 57600.00000 0 -13186588.478 -10490572.143 -19122663.270 10 0 60662 58500.00000 0 -10732566.498 -10247419.382 -20718947.432 10 0 60662 59400.00000 0 -8095234.095 -10183153.798 -21911743.794 10 0 60662 60300.00000 0 -5339512.731 -10318535.041 -22677724.905 10 0 60662 61200.00000 0 -2534105.775 -10662514.671 -23001889.045 10 0 60662 62100.00000 0 251134.997 -11211774.709 -22877860.394 10 0 60662 63000.00000 0 2947887.464 -11950802.994 -22308018.742 10 0 60662 63900.00000 0 5491969.864 -12852502.909 -21303455.810 10 0 60662 64800.00000 0 7825775.083 -13879312.168 -19883758.768 10 0 60662 65700.00000 0 9900426.809 -14984783.525 -18076625.116 10 0 60662 66600.00000 0 11677567.670 -16115560.377 -15917316.531 10 0 60662 67500.00000 0 13130705.074 -17213663.310 -13447962.691 10 0 60662 68400.00000 0 14246059.370 -18218990.207 -10716729.213 10 0 60662 69300.00000 0 15022880.131 -19071923.348 -7776866.775 10 0 60662 70200.00000 0 15473219.126 -19715932.443 -4685660.982 10 0 60662 71100.00000 0 15621171.676 -20100062.760 -1503304.564 10 0 60662 72000.00000 0 15501620.738 -20181202.640 1708284.846 10 0 60662 72900.00000 0 15158539.064 -19926034.335 4886677.221 10 0 60662 73800.00000 0 14642923.354 -19312585.880 7970148.403 10 0 60662 74700.00000 0 14010449.535 -18331318.924 10898879.713 10 0 60662 75600.00000 0 13318949.612 -16985707.331 13616115.364 10 0 60662 76500.00000 0 12625817.438 -15292282.939 16069255.420 10 0 60662 77400.00000 0 11985453.079 -13280147.302 18210863.695 10 0 60662 78300.00000 0 11446853.113 -10989970.390 19999572.167 10 0 60662 79200.00000 0 11051447.476 -8472518.305 21400865.796 10 0 60662 80100.00000 0 10831272.630 -5786771.260 22387734.116 10 0 60662 81000.00000 0 10807556.453 -2997709.451 22941178.661 10 0 60662 81900.00000 0 10989772.989 -173857.646 23050567.926 10 0 60662 82800.00000 0 11375205.616 2615311.151 22713834.204 10 0 60662 83700.00000 0 11949036.372 5302007.288 21937509.331 10 0 60662 84600.00000 0 12684957.521 7822684.310 20736599.006 10 0 60662 85500.00000 0 13546280.149 10120423.079 19134297.899 10 0 60663 0.00000 0 14487494.117 12147043.090 17161550.649 10 0 60663 900.00000 0 15456215.678 13864856.072 14856465.009 10 0 60663 1800.00000 0 16395441.187 15247987.588 12263589.902 10 0 60663 2700.00000 0 17246015.352 16283216.062 9433067.357 10 0 60663 3600.00000 0 17949210.218 16970291.883 6419675.802 10 0 60663 4500.00000 0 18449307.727 17321724.355 3281780.968 10 0 60663 5400.00000 0 18696077.357 17362044.992 80213.825 10 0 60663 6300.00000 0 18647044.195 17126577.590 -3122903.437 10 0 60663 7200.00000 0 18269451.015 16659766.323 -6265360.913 10 0 60663 8100.00000 0 17541830.244 16013131.806 -9286070.593 10 0 60663 9000.00000 0 16455117.729 15242941.084 -12126258.295 10 0 60663 9900.00000 0 15013259.232 14407689.829 -14730614.083 10 0 60663 10800.00000 0 13233281.796 13565503.356 -17048378.068 10 0 60663 11700.00000 0 11144824.680 12771566.754 -19034339.586 10 0 60663 12600.00000 0 8789147.403 12075693.487 -20649729.406 10 0 60663 13500.00000 0 6217654.646 11520136.112 -21862986.690 10 0 60663 14400.00000 0 3489998.254 11137732.592 -22650385.018 10 0 60663 15300.00000 0 671834.676 10950467.558 -22996504.510 10 0 60663 16200.00000 0 -2167669.117 10968510.162 -22894540.235 10 0 60663 17100.00000 0 -4958477.466 11189769.938 -22346440.411 10 0 60663 18000.00000 0 -7632365.315 11599989.936 -21362871.281 10 0 60663 18900.00000 0 -10125523.086 12173373.434 -19963009.120 10 0 60663 19800.00000 0 -12380978.255 12873717.684 -18174163.312 10 0 60663 20700.00000 0 -14350732.434 13656006.368 -16031237.989 10 0 60663 21600.00000 0 -15997524.861 14468392.779 -13576043.012 10 0 60663 22500.00000 0 -17296149.084 15254488.934 -10856468.309 10 0 60663 23400.00000 0 -18234268.629 15955862.702 -7925538.471 10 0 60663 24300.00000 0 -18812698.885 16514636.178 -4840367.025 10 0 60663 25200.00000 0 -19045145.212 16876074.295 -1661031.926 10 0 60663 26100.00000 0 -18957410.414 16991053.289 1550604.617 10 0 60663 27000.00000 0 -18586107.311 16818304.000 4732107.823 10 0 60663 27900.00000 0 -17976932.901 16326334.956 7821689.007 10 0 60663 28800.00000 0 -17182579.038 15494954.083 10759406.801 10 0 60663 29700.00000 0 -16260369.366 14316325.233 13488327.293 10 0 60663 30600.00000 0 -15269723.308 12795515.580 15955620.772 10 0 60663 31500.00000 0 -14269554.511 10950511.475 18113574.329 10 0 60663 32400.00000 0 -13315713.135 8811702.582 19920501.814 10 0 60663 33300.00000 0 -12458578.869 6420856.119 21341534.877 10 0 60663 34200.00000 0 -11740904.635 3829623.896 22349281.383 10 0 60663 35100.00000 0 -11196000.000 1097643.799 22924340.087 10 0 60663 36000.00000 0 -10846328.883 -1709686.398 23055663.176 10 0 60663 36900.00000 0 -10702578.862 -4523671.917 22740760.884 10 0 60663 37800.00000 0 -10763239.885 -7274920.209 21985745.100 10 0 60663 38700.00000 0 -11014709.237 -9895970.885 20805211.486 10 0 60663 39600.00000 0 -11431918.175 -12323849.379 19221962.248 10 0 60663 40500.00000 0 -11979454.187 -14502440.503 17266574.295 10 0 60663 41400.00000 0 -12613132.562 -16384585.137 14976820.089 10 0 60663 42300.00000 0 -13281952.334 -17933814.295 12396951.076 10 0 60663 43200.00000 0 -13930355.601 -19125649.349 9576856.072 10 0 60663 44100.00000 0 -14500696.344 -19948414.682 6571109.411 10 0 60663 45000.00000 0 -14935815.685 -20403528.843 3437925.971 10 0 60663 45900.00000 0 -15181615.586 -20505261.727 238042.241 10 0 60663 46800.00000 0 -15189522.426 -20279967.409 -2966455.631 10 0 60663 47700.00000 0 -14918735.941 -19764824.191 -6113334.406 10 0 60663 48600.00000 0 -14338167.459 -19006134.228 -9141423.601 10 0 60663 49500.00000 0 -13427984.017 -18057253.815 -11991808.807 10 0 60663 50400.00000 0 -12180691.148 -16976241.286 -14608984.652 10 0 60663 51300.00000 0 -10601706.410 -15823321.686 -16941944.240 10 0 60663 52200.00000 0 -8709397.066 -14658275.381 -18945183.024 10 0 60663 53100.00000 0 -6534577.970 -13537861.279 -20579596.620 10 0 60663 54000.00000 0 -4119488.561 -12513384.025 -21813254.273 10 0 60663 54900.00000 0 -1516289.963 -11628508.539 -22622032.071 10 0 60663 55800.00000 0 1214856.314 -10917414.885 -22990092.866 10 0 60663 56700.00000 0 4008048.807 -10403371.975 -22910202.933 10 0 60663 57600.00000 0 6794151.828 -10097790.821 -22383878.667 10 0 60663 58500.00000 0 9503442.102 -9999797.594 -21421360.074 10 0 60663 59400.00000 0 12068285.798 -10096344.543 -20041411.292 10 0 60663 60300.00000 0 14425734.043 -10362853.820 -18270951.922 10 0 60663 61200.00000 0 16519928.250 -10764366.414 -16144526.456 10 0 60663 62100.00000 0 18304214.690 -11257146.757 -13703622.445 10 0 60663 63000.00000 0 19742880.040 -11790674.013 -10995851.245 10 0 60663 63900.00000 0 20812435.738 -12309934.464 -8074008.117 10 0 60663 64800.00000 0 21502398.317 -12757916.619 -4995030.995 10 0 60663 65700.00000 0 21815534.383 -13078202.053 -1818879.330 10 0 60663 66600.00000 0 21767561.722 -13217541.108 1392643.882 10 0 60663 67500.00000 0 21386321.249 -13128303.532 4577102.832 10 0 60663 68400.00000 0 20710456.793 -12770699.791 7672647.830 10 0 60663 69300.00000 0 19787660.472 -12114678.925 10619218.012 10 0 60663 70200.00000 0 18672559.372 -11141422.935 13359704.126 10 0 60663 71100.00000 0 17424333.894 -9844375.048 15841048.979 10 0 60663 72000.00000 0 16104168.813 -8229759.055 18015264.742 10 0 60663 72900.00000 0 14772644.376 -6316568.373 19840348.440 10 0 60663 73800.00000 0 13487176.539 -4136025.554 21281079.257 10 0 60663 74700.00000 0 12299612.705 -1730534.805 22309683.777 10 0 60663 75600.00000 0 11254082.281 847829.195 22906357.972 10 0 60663 76500.00000 0 10385190.293 3539234.214 23059637.341 10 0 60663 77400.00000 0 9716627.930 6278326.858 22766609.340 10 0 60663 78300.00000 0 9260256.486 8996701.348 22032964.878 10 0 60663 79200.00000 0 9015701.716 11625500.213 20872888.272 10 0 60663 80100.00000 0 8970474.744 14098041.130 19308787.700 10 0 60663 81000.00000 0 9100614.093 16352362.935 17370870.752 10 0 60663 81900.00000 0 9371822.087 18333586.995 15096572.268 10 0 60663 82800.00000 0 9741048.505 19995997.206 12529844.215 10 0 60663 83700.00000 0 10158455.815 21304753.129 9720319.878 10 0 60663 84600.00000 0 10569684.274 22237165.374 6722367.031 10 0 60663 85500.00000 0 10918322.367 22783480.059 3594047.115 10 0 60664 0.00000 0 11148479.041 22947139.165 395999.771 10 0 60664 900.00000 0 11207349.464 22744505.283 -2809728.142 10 0 60664 1800.00000 0 11047665.411 22204061.336 -5960882.382 10 0 60664 2700.00000 0 10629926.328 21365118.328 -8996212.477 10 0 60664 3600.00000 0 9924315.104 20276084.385 -11856666.091 10 0 60664 4500.00000 0 8912215.978 18992367.532 -14486544.487 10 0 60664 5400.00000 0 7587268.290 17574000.108 -16834595.602 10 0 60664 6300.00000 0 5955909.262 16083084.847 -18855022.596 10 0 60664 7200.00000 0 4037380.474 14581170.350 -20508387.333 10 0 60664 8100.00000 0 1863195.420 13126666.945 -21762390.324 10 0 60664 9000.00000 0 -523911.672 11772412.235 -22592511.172 10 0 60664 9900.00000 0 -3071513.443 10563489.476 -22982496.256 10 0 60664 10800.00000 0 -5719430.842 9535391.168 -22924683.588 10 0 60664 11700.00000 0 -8402008.136 8712605.549 -22420157.960 10 0 60664 12600.00000 0 -11050626.870 8107685.745 -21478732.973 10 0 60664 13500.00000 0 -13596353.863 7720840.649 -20118760.040 10 0 60664 14400.00000 0 -15972612.511 7540064.374 -18366767.936 10 0 60664 15300.00000 0 -18117765.423 7541798.040 -16256940.057 10 0 60664 16200.00000 0 -19977500.149 7692094.897 -13830439.824 10 0 60664 17100.00000 0 -21506918.051 7948238.182 -11134597.914 10 0 60664 18000.00000 0 -22672238.929 8260741.768 -8221977.943 10 0 60664 18900.00000 0 -23452050.479 8575647.298 -5149339.791 10 0 60664 19800.00000 0 -23838051.100 8837018.929 -1976521.869 10 0 60664 20700.00000 0 -23835256.199 8989528.543 1234734.642 10 0 60664 21600.00000 0 -23461661.057 8981020.720 4421995.534 10 0 60664 22500.00000 0 -22747376.388 8764947.984 7523352.779 10 0 60664 23400.00000 0 -21733274.972 8302572.790 10478628.672 10 0 60664 24300.00000 0 -20469208.145 7564843.029 13230541.246 10 0 60664 25200.00000 0 -19011868.701 6533862.087 15725808.380 10 0 60664 26100.00000 0 -17422391.046 5203891.889 17916169.728 10 0 60664 27000.00000 0 -15763789.809 3581847.189 19759307.678 10 0 60664 27900.00000 0 -14098344.115 1687260.698 21219650.863 10 0 60664 28800.00000 0 -12485036.268 -448279.359 22269046.186 10 0 60664 29700.00000 0 -10977150.674 -2782196.047 22887288.063 10 0 60664 30600.00000 0 -9620131.619 -5262451.084 23062496.162 10 0 60664 31500.00000 0 -8449787.505 -7829470.295 22791335.634 10 0 60664 32400.00000 0 -7490914.585 -10418388.682 22079076.501 10 0 60664 33300.00000 0 -6756395.954 -12961523.700 20939491.453 10 0 60664 34200.00000 0 -6246812.098 -15390976.053 19394593.988 10 0 60664 35100.00000 0 -5950578.340 -17641252.061 17474221.366 10 0 60664 36000.00000 0 -5844603.034 -19651800.530 15215469.435 10 0 60664 36900.00000 0 -5895438.985 -21369360.158 12661988.994 10 0 60664 37800.00000 0 -6060880.197 -22750020.910 9863155.810 10 0 60664 38700.00000 0 -6291937.501 -23760914.021 6873128.858 10 0 60664 39600.00000 0 -6535110.637 -24381460.176 3749813.699 10 0 60664 40500.00000 0 -6734861.615 -24604123.304 553749.936 10 0 60664 41400.00000 0 -6836185.329 -24434637.686 -2653056.461 10 0 60664 42300.00000 0 -6787168.740 -23891697.861 -5808333.692 10 0 60664 43200.00000 0 -6541429.942 -23006123.263 -8850754.267 10 0 60664 44100.00000 0 -6060332.914 -21819531.597 -11721130.953 10 0 60664 45000.00000 0 -5314882.811 -20382575.863 -14363574.693 10 0 60664 45900.00000 0 -4287219.767 -18752818.457 -16726591.234 10 0 60664 46800.00000 0 -2971645.916 -16992331.367 -18764094.268 10 0 60664 47700.00000 0 -1375139.928 -15165123.304 -20436314.465 10 0 60664 48600.00000 0 482665.012 -13334502.058 -21710585.827 10 0 60664 49500.00000 0 2570041.134 -11560483.278 -22561993.255 10 0 60664 50400.00000 0 4844242.391 -9897354.998 -22973867.975 10 0 60664 51300.00000 0 7253053.651 -8391500.649 -22938120.563 10 0 60664 52200.00000 0 9736749.076 -7079572.352 -22455404.551 10 0 60664 53100.00000 0 12230378.447 -5987091.367 -21535107.017 10 0 60664 54000.00000 0 14666286.096 -5127534.401 -20195166.073 10 0 60664 54900.00000 0 16976757.058 -4501943.715 -18461718.664 10 0 60664 55800.00000 0 19096679.405 -4099076.614 -16368585.630 10 0 60664 56700.00000 0 20966110.955 -3896086.826 -13956604.330 10 0 60664 57600.00000 0 22532642.469 -3859707.510 -11272822.356 10 0 60664 58500.00000 0 23753458.079 -3947884.191 -8369568.822 10 0 60664 59400.00000 0 24597006.619 -4111786.695 -5303422.280 10 0 60664 60300.00000 0 25044214.210 -4298113.049 -2134096.511 10 0 60664 61200.00000 0 25089187.995 -4451586.028 1076732.903 10 0 60664 62100.00000 0 24739382.830 -4517535.060 4266637.194 10 0 60664 63000.00000 0 24015225.450 -4444452.949 7373653.715 10 0 60664 63900.00000 0 22949213.742 -4186418.394 10337491.433 10 0 60664 64800.00000 0 21584530.704 -3705281.442 13100698.816 10 0 60664 65700.00000 0 19973232.898 -2972519.560 15609771.550 10 0 60664 66600.00000 0 18174090.604 -1970686.313 17816179.062 10 0 60664 67500.00000 0 16250170.896 -694392.097 19677290.936 10 0 60664 68400.00000 0 14266264.896 849223.862 21157186.621 10 0 60664 69300.00000 0 12286266.229 2640549.732 22227334.280 10 0 60664 70200.00000 0 10370609.052 4648083.207 22867127.292 10 0 60664 71100.00000 0 8573870.901 6829515.647 23064269.602 10 0 60664 72000.00000 0 6942638.411 9133273.880 22815003.767 10 0 60664 72900.00000 0 5513722.794 11500456.757 22124178.232 10 0 60664 73800.00000 0 4312797.443 13867087.594 21005152.995 10 0 60664 74700.00000 0 3353512.749 16166590.693 19479545.451 10 0 60664 75600.00000 0 2637123.701 18332391.001 17576820.783 10 0 60664 76500.00000 0 2152644.901 20300530.663 15333733.818 10 0 60664 77400.00000 0 1877526.126 22012195.176 12793631.906 10 0 60664 78300.00000 0 1778820.099 23416045.119 10005630.808 10 0 60664 79200.00000 0 1814793.820 24470256.941 7023678.037 10 0 60664 80100.00000 0 1936916.188 25144187.709 3905520.471 10 0 60664 81000.00000 0 2092138.748 25419593.862 711595.071 10 0 60664 81900.00000 0 2225373.748 25291352.150 -2496136.574 10 0 60664 82800.00000 0 2282064.946 24767651.416 -5655387.688 10 0 60664 83700.00000 0 2210742.220 23869645.857 -8704756.498 10 0 60664 84600.00000 0 1965451.201 22630582.987 -11584923.427 10 0 60664 85500.00000 0 1507953.950 21094441.688 -14239811.402 10 0 60665 0.00000 0 809606.094 19314136.673 -16617685.815 10 0 60665 900.00000 0 -147171.326 17349363.038 -18672173.091 10 0 60665 1800.00000 0 -1367888.642 15264173.394 -20363173.998 10 0 60665 2700.00000 0 -2845498.819 13124385.951 -21657657.299 10 0 60665 3600.00000 0 -4560445.160 10994934.722 -22530314.234 10 0 60665 4500.00000 0 -6481245.860 8937272.346 -22964061.660 10 0 60665 5400.00000 0 -8565592.552 7006934.895 -22950383.214 10 0 60665 6300.00000 0 -10761918.134 5251371.032 -22489501.321 10 0 60665 7200.00000 0 -13011369.098 3708126.705 -21590376.293 10 0 60665 8100.00000 0 -15250100.151 2403461.375 -20270532.270 10 0 60665 9000.00000 0 -17411795.147 1351453.433 -18555713.247 10 0 60665 9900.00000 0 -19430308.405 553631.593 -16479375.963 10 0 60665 10800.00000 0 -21242315.279 -853.455 -14082029.811 10 0 60665 11700.00000 0 -22789860.307 -334525.893 -11410437.092 10 0 60665 12600.00000 0 -24022695.521 -480381.648 -8516689.986 10 0 60665 13500.00000 0 -24900310.496 -480238.108 -5457183.137 10 0 60665 14400.00000 0 -25393568.890 -382708.572 -2291503.005 10 0 60665 15300.00000 0 -25485883.120 -240889.194 918743.187 10 0 60665 16200.00000 0 -25173878.617 -109858.168 4111134.918 10 0 60665 17100.00000 0 -24467520.923 -44094.587 7223657.759 10 0 60665 18000.00000 0 -23389701.723 -94927.353 10195910.158 10 0 60665 18900.00000 0 -21975302.769 -308122.710 12970273.779 10 0 60665 19800.00000 0 -20269778.449 -721712.606 15493024.748 10 0 60665 20700.00000 0 -18327317.666 -1364155.355 17715364.687 10 0 60665 21600.00000 0 -16208662.823 -2252905.694 19594352.522 10 0 60665 22500.00000 0 -13978677.361 -3393453.856 21093720.321 10 0 60665 23400.00000 0 -11703763.126 -4778873.501 22184558.903 10 0 60665 24300.00000 0 -9449234.340 -6389897.204 22845861.594 10 0 60665 25200.00000 0 -7276756.107 -8195516.404 23064917.181 10 0 60665 26100.00000 0 -5241952.230 -10154081.290 22837545.788 10 0 60665 27000.00000 0 -3392279.787 -12214855.686 22168174.079 10 0 60665 27900.00000 0 -1765256.733 -14319963.553 21069748.824 10 0 60665 28800.00000 0 -387114.329 -16406647.710 19563490.465 10 0 60665 29700.00000 0 728071.166 -18409748.576 17678490.955 10 0 60665 30600.00000 0 1578732.652 -20264301.578 15451162.677 10 0 60665 31500.00000 0 2175638.162 -21908146.610 12924547.831 10 0 60665 32400.00000 0 2541196.349 -23284442.035 10147500.215 10 0 60665 33300.00000 0 2708270.547 -24343979.136 7173753.701 10 0 60665 34200.00000 0 2718550.930 -25047200.530 4060894.116 10 0 60665 35100.00000 0 2620552.808 -25365837.831 869253.272 10 0 60665 36000.00000 0 2467325.055 -25284099.202 -2339254.244 10 0 60665 36900.00000 0 2313965.128 -24799355.756 -5502329.382 10 0 60665 37800.00000 0 2215045.779 -23922296.571 -8558498.847 10 0 60665 38700.00000 0 2222062.706 -22676544.188 -11448313.495 10 0 60665 39600.00000 0 2381011.994 -21097745.152 -14115511.008 10 0 60665 40500.00000 0 2730201.113 -19232172.392 -16508119.523 10 0 60665 41400.00000 0 3298387.669 -17134896.892 -18579479.896 10 0 60665 42300.00000 0 4103326.478 -14867604.551 -20289165.780 10 0 60665 43200.00000 0 5150788.388 -12496149.241 -21603782.734 10 0 60665 44100.00000 0 6434094.308 -10087944.369 -22497630.004 10 0 60665 45000.00000 0 7934186.117 -7709302.238 -22953211.344 10 0 60665 45900.00000 0 9620233.199 -5422832.747 -22961584.289 10 0 60665 46800.00000 0 11450750.612 -3285010.521 -22522540.581 10 0 60665 47700.00000 0 13375182.938 -1344012.432 -21644613.788 10 0 60665 48600.00000 0 15335887.966 362083.963 -20344913.710 10 0 60665 49500.00000 0 17270437.138 1806665.975 -18648790.627 10 0 60665 50400.00000 0 19114136.009 2975458.685 -16589336.024 10 0 60665 51300.00000 0 20802658.454 3866869.668 -14206729.743 10 0 60665 52200.00000 0 22274683.348 4491792.520 -11547446.776 10 0 60665 53100.00000 0 23474422.253 4872879.254 -8663339.910 10 0 60665 54000.00000 0 24353931.290 5043314.388 -5610617.025 10 0 60665 54900.00000 0 24875109.662 5045144.683 -2448734.063 10 0 60665 55800.00000 0 25011300.726 4927237.408 760773.534 10 0 60665 56700.00000 0 24748428.657 4742955.579 3955497.027 10 0 60665 57600.00000 0 24085623.653 4547650.387 7073373.718 10 0 60665 58500.00000 0 23035310.421 4396078.350 10053894.909 10 0 60665 59400.00000 0 21622757.513 4339853.391 12839278.599 10 0 60665 60300.00000 0 19885107.674 4425041.997 15375584.184 10 0 60665 61200.00000 0 17869931.017 4690002.994 17613747.969 10 0 60665 62100.00000 0 15633362.396 5163562.619 19510520.332 10 0 60665 63000.00000 0 13237901.204 5863601.120 21029287.707 10 0 60665 63900.00000 0 10749965.248 6796109.590 22140764.932 10 0 60665 64800.00000 0 8237299.888 7954756.020 22823546.255 10 0 60665 65700.00000 0 5766348.938 9320978.459 23064505.873 10 0 60665 66600.00000 0 3399694.939 10864601.449 22859041.634 10 0 60665 67500.00000 0 1193673.077 12544950.511 22211158.135 10 0 60665 68400.00000 0 -803744.290 14312419.168 21133388.180 10 0 60665 69300.00000 0 -2554706.736 16110424.508 19646554.088 10 0 60665 70200.00000 0 -4032817.244 17877671.344 17779373.012 10 0 60665 71100.00000 0 -5223982.226 19550632.307 15567912.949 10 0 60665 72000.00000 0 -6126745.719 21066141.985 13054908.709 10 0 60665 72900.00000 0 -6752094.515 22363998.174 10288949.643 10 0 60665 73800.00000 0 -7122742.593 23389462.489 7323553.312 10 0 60665 74700.00000 0 -7271924.778 24095556.117 4216141.687 10 0 60665 75600.00000 0 -7241749.981 24445054.441 1026938.530 10 0 60665 76500.00000 0 -7081182.986 24412096.219 -2182191.519 10 0 60665 77400.00000 0 -6843739.553 23983338.604 -5348940.051 10 0 60665 78300.00000 0 -6584992.052 23158607.977 -8411765.093 10 0 60665 79200.00000 0 -6359991.244 21951017.457 -11311090.625 10 0 60665 80100.00000 0 -6220713.807 20386544.321 -13990471.571 10 0 60665 81000.00000 0 -6213644.493 18503083.267 -16397700.853 10 0 60665 81900.00000 0 -6377596.476 16349013.700 -18485836.169 10 0 60665 82800.00000 0 -6741863.608 13981339.828 -20214125.532 10 0 60665 83700.00000 0 -7324784.409 11463480.583 -21548812.740 10 0 60665 84600.00000 0 -8132780.282 8862801.307 -22463806.226 10 0 60665 85500.00000 0 -9159910.313 6247990.217 -22941197.538 99